{"data":{"norad_id":50813,"epoch":"2026-05-25T02:59:01.391424Z","epoch_age_seconds":70975,"freshness":"FRESH","line1":"1 50813U 22001L   26145.12432166  .00044852  00000+0  99506-3 0  9999","line2":"2 50813  53.2030 123.5632 0002831  55.6592 304.4682 15.43308189242838","mean_motion":15.43308189,"eccentricity":0.0002831,"inclination_deg":53.203,"raan_deg":123.5632,"arg_perigee_deg":55.6592,"mean_anomaly_deg":304.4682,"bstar":0.00099506,"rev_number":24283,"period_min":93.306055800369,"perigee_km":434.42448221808,"apogee_km":438.28284683234,"semimajor_km":6814.4906645252,"source":"CELESTRAK","updated_at":"2026-05-25T13:38:16.875707Z"}}